Reflectivity
14 15 17 15 15 16 -5 -13 -20 -20 -20 -20 -20 -20 -20 -20 -20 -20 -20 -20 -20 -20 -20 -20 -20 -20 -20 -20 -20 -20 -20 -20 -20 -20 -16 -20 -20 -20 -20 -20 -20 -20 -20 -20 -20
16 15 17 20 19 19 18 7 -20 -20 -20 -20 -20 -20 -20 -20 -20 -20 -20 -20 -20 -20 -20 -20 -20 -20 -20 -20 -20 -20 -20 -20 -20 0 -16 -20 -20 -20 -20 -20 -20 -20 -20 -20 -20
17 16 10 18 16 18 18 15 -1 -20 -20 -2 -10 -20 -20 -20 -20 -20 -20 -20 -20 -20 -20 -20 -20 -20 -20 -20 -20 -20 -20 -20 -20 -20 -20 -20 -20 -20 -20 -20 -20 -20 -20 -20 -20
18 18 16 15 -2 -20 -20 -20 -20 -20 -20 -20 13 -4 5 -20 -20 -20 -20 -20 -20 -20 -20 -20 -20 -20 -20 -20 -20 -20 -15 -15 -20 -20 -20 -20 -20 -20 -20 -20 -20 -20 -20 -20 -20
-20 -20 -11 -20 -20 -20 -20 -20 -20 -20 -20 -20 -20 12 -18 -20 -20 -20 -20 -20 -20 -20 -20 -20 -20 -20 -20 -20 -20 -20 -20 -20 -20 -20 -20 -20 -20 -20 -20 -20 -20 -20 -20 -20 -20
-20 -20 -20 -20 -20 -20 -20 -20 -20 -20 -20 -20 -20 11 -16 -20 -20 -20 -20 -20 -20 -20 -20 -20 -20 -20 -20 -20 -20 -20 -19 -20 -20 -20 -20 -20 -20 -20 -20 -20 -20 -20 -20 -20 -20
-20 -20 -20 -20 -20 -20 -20 -20 -20 -20 -20 -20 -20 2 -17 -20 -20 -20 -20 -20 -20 -20 -20 -20 -20 -20 -20 -20 -20 -20 -20 -20 -20 -20 -20 -20 -20 -16 -20 -20 -20 -20 -20 -20 -20
-20 -20 -20 -20 -20 -20 -20 -20 -20 -20 -20 -20 -20 16 -17 -20 -20 -20 -20 -20 -20 -20 -20 -20 -20 -20 -20 -20 -20 -20 -20 -20 -20 -20 -20 -20 -20 -20 -20 -20 -20 -20 -20 -20 -20
4 6 4 -0 -20 -20 -20 -20 -20 -20 -20 -19 4 0 -20 -20 -20 -20 -20 -20 -20 -20 -20 -20 -20 -20 -20 -20 -20 -20 -20 -20 -20 -20 -20 -20 -20 -20 -20 -20 -20 -20 -20 -20 -20
6 9 7 8 -20 -20 -20 -20 -20 -20 -20 4 -20 -5 -20 -20 -20 -20 -20 -20 -20 -20 -20 -20 -20 -20 -20 -20 -20 -20 -20 -20 -20 -20 -20 -20 -20 -20 -20 -20 -20 -20 -20 -20 -20
-18 -7 -4 6 -20 -20 -20 -20 -20 -20 5 -20 -20 -20 -20 -20 -20 -20 -20 -20 -20 -20 -20 -20 -20 -20 -20 -20 -20 -20 -20 -20 -20 -20 -20 -20 -20 -20 -20 -20 -20 -20 -20 -20 -20
-20 -20 -10 8 -20 -20 -20 -20 -14 17 9 -20 -20 -20 -20 -20 -20 -20 -20 -20 -20 -20 -20 -20 -20 -20 -20 -20 -20 -20 -20 -20 -20 -20 -20 -20 -20 -20 -20 -20 -20 -20 -20 -20 -20
-20 -20 -20 3 -20 -20 -20 -20 -20 -20 10 -20 -20 -20 -20 -20 -20 -20 -20 -20 -20 -20 -20 -20 -20 -20 -20 -20 -20 -20 -20 -20 -20 -20 -20 -20 -20 -20 -20 -20 -20 -20 -20 -20 -20
-20 -20 2 13 -20 -20 -20 -20 -20 -20 16 -20 -20 -20 -20 -20 -20 -20 -20 -20 -20 -20 -20 -20 -20 -20 -20 -20 -20 -20 -20 -20 -20 -20 -20 -20 -20 -20 -20 -20 -20 -20 -20 -20 -20
-20 -20 -5 2 -6 -20 -20 -20 -20 0 -20 -20 -0 21 -20 -20 -20 -20 -20 -20 -20 -20 -20 -20 -20 -20 -20 -20 -20 -20 -20 -20 -20 -20 -20 -20 -20 -20 -20 -20 -20 -20 -20 -20 -20
-20 -20 -13 -20 -20 -20 -20 -20 -17 1 -20 -20 -10 15 16 22 -2 -20 -20 -20 -20 -20 -20 -20 -20 -20 -20 -20 -20 -20 -20 -20 -20 -20 -20 -20 -20 -20 -20 -20 -20 -20 -20 -20 -20
-20 -10 -20 -20 -20 -20 -20 -20 -10 -5 -20 -20 -6 5 7 20 22 28 12 -19 -16 -20 -20 -20 -20 -20 -20 -20 -20 -20 -20 -20 -20 -20 -20 -20 -20 -20 -20 -20 -20 -20 -20 -20 -20
-20 -17 -20 -20 -20 -20 -20 -20 -16 -20 9 -7 -20 -20 -15 3 18 19 21 23 -17 -7 -20 -20 -20 -20 -20 -20 -20 -20 -20 -20 -20 -20 -20 -20 -20 -20 -20 -20 -20 -20 -20 -20 -20
-20 -20 -20 -20 -20 -20 -20 -20 13 6 -1 -5 -20 -5 -19 -20 -17 5 25 20 -11 -19 -20 -20 -20 -20 -20 -20 -20 -20 -20 -20 -20 -20 -20 -20 -20 -20 -20 -20 -20 -20 -20 -20 -20
-20 -17 -20 -20 -20 -20 -20 -2 -20 -20 -20 -20 10 11 4 -20 -20 -7 11 22 28 28 22 8 9 -20 -20 -20 -20 6 -20 -20 -20 -20 -20 -20 -20 -20 -20 -20 -20 -20 -20 -20 -20
-20 -18 -20 -20 -20 -20 -20 -20 -20 -20 -20 3 9 7 -17 -20 -17 -20 2 21 25 21 21 25 1 6 -3 -20 -20 -20 -20 -20 -20 -20 -20 -20 -20 -20 -20 -20 -20 -20 -20 -20 -20
-16 -7 -20 -20 -20 -20 -20 -20 -20 -20 -20 -18 -19 -18 -20 -20 -20 -20 6 18 19 19 8 -20 -7 1 -18 -15 -20 -20 -20 -9 -20 -20 -20 -20 -20 -20 -20 -20 -20 -20 -20 -20 -20
-4 -3 -20 -20 -20 -20 -20 -20 -20 -20 -20 -20 -20 9 -17 -20 -15 -20 -20 -1 -4 17 27 25 25 13 8 -18 5 8 -20 -20 -20 -20 -20 -20 -20 -20 -20 -20 -20 -20 -20 -20 -20
-4 -13 -20 -20 -20 -20 -20 -15 -20 -20 -20 -20 -20 1 -20 -20 -20 -15 -20 -14 -4 15 33 39 34 4 -7 -14 -16 -20 -20 -20 -20 -20 -20 -20 -20 -20 -20 -20 -20 -20 -20 -20 -20
-20 -20 -4 -12 -20 -20 1 -14 14 -20 -20 -20 -20 -14 -20 -6 -20 -10 -20 -20 -13 12 25 26 20 -20 4 -20 -20 -20 -20 -20 0 -20 -20 -20 -20 -20 -20 -20 -20 -20 -20 -20 -20
-7 -20 -20 6 -20 -13 -15 -8 -20 -20 -20 -20 -20 -20 -20 -20 -20 -20 -20 -20 7 6 22 22 21 -13 18 22 -20 -20 -20 -20 -20 -20 -20 -20 -20 -20 -20 -20 -20 -4 -2 -20 -20
33 0 -10 -10 -20 -8 -15 11 -20 -20 -20 -20 -20 -20 -20 -20 -20 -20 -20 -20 2 -18 11 25 24 24 9 6 8 16 -2 -20 -20 -20 -20 -20 -20 -20 -20 -20 -20 -20 -20 -20 -20
Wind_Speed
19 19 19 19 19 19 19 18 17 15 14 14 15 12 13 14 12 5 13 12 12 14 7 4 4 4 1 3 5 5 2 6 11 9 9 2 7 4 2 8 3 7 8 6 21
22 22 22 21 21 20 20 21 20 19 18 15 14 14 11 8 6 15 12 20 22 15 9 11 8 7 3 4 3 5 4 12 5 8 8 6 7 9 6 6 3 2 5 15 21
22 22 23 23 24 24 23 22 21 22 20 19 17 14 10 3 6 13 20 31 26 18 9 8 6 7 5 4 5 6 14 3 5 6 5 5 5 7 6 5 8 14 12 21 19
22 23 24 24 25 24 25 25 25 23 22 19 17 13 9 3 12 3 9 13 24 15 9 8 6 7 8 9 7 5 8 7 3 2 2 4 3 6 9 11 11 13 24 26 22
24 24 24 26 26 27 28 28 28 27 24 21 19 11 3 7 16 8 5 8 13 15 15 9 7 8 10 7 6 9 5 6 7 9 7 3 9 9 8 11 4 16 20 26 23
26 26 26 26 26 27 29 30 30 29 27 24 20 11 5 15 5 13 10 10 8 11 11 11 10 7 7 9 10 6 14 14 7 7 5 6 5 6 10 9 7 18 21 21 24
27 28 29 29 30 30 31 32 33 33 29 26 21 12 11 28 6 1 10 12 8 14 11 10 7 7 5 2 6 3 7 6 7 6 8 5 10 14 15 7 13 18 18 19 20
25 27 29 32 32 33 34 35 35 34 33 26 20 13 16 8 20 15 7 6 7 4 1 5 9 6 4 3 4 5 3 7 8 11 7 10 22 7 11 11 14 17 18 18 21
26 27 28 30 32 33 35 39 40 29 23 16 7 10 12 5 12 24 13 13 5 5 6 2 8 7 5 4 3 5 7 8 5 10 6 10 12 8 7 14 18 15 16 18 17
27 29 30 30 32 34 38 36 28 16 5 6 3 5 7 9 4 7 11 11 7 8 4 7 5 6 6 10 21 14 9 8 10 8 8 14 20 7 6 8 13 10 12 15 17
29 29 30 30 31 35 23 13 9 5 6 7 10 9 5 13 3 7 12 15 9 7 12 7 8 22 28 31 24 10 9 12 5 9 8 17 22 17 14 6 8 9 10 13 20
29 29 30 30 32 33 8 10 7 10 19 17 25 24 22 18 14 8 18 18 15 18 11 5 27 22 13 15 18 11 9 12 6 5 8 7 20 14 8 9 12 13 11 17 15
30 30 30 30 33 9 12 12 11 15 9 15 22 19 15 20 25 10 23 13 26 22 28 26 15 18 19 7 17 20 21 17 8 2 3 1 10 8 9 15 13 13 18 18 22
30 30 30 29 13 11 11 7 11 8 8 12 7 10 13 9 16 27 13 12 8 25 19 18 21 22 19 21 18 24 16 16 11 4 9 8 14 10 6 12 14 20 16 19 20
29 30 29 28 12 3 9 10 10 1 4 8 3 5 25 7 7 18 16 19 12 11 12 15 14 25 11 21 23 16 11 17 10 9 1 3 3 10 6 13 12 18 20 19 18
29 30 30 11 5 10 11 11 2 2 10 8 8 17 15 10 18 12 20 24 7 10 8 17 9 19 22 16 20 10 6 7 4 5 8 11 11 10 10 8 8 12 16 18 17
30 30 25 8 6 11 11 4 5 4 8 8 17 19 17 12 9 14 15 23 18 13 16 13 8 4 4 8 5 9 11 1 2 2 12 8 11 23 10 10 19 20 15 10 13
30 26 14 9 9 6 3 5 3 6 6 18 11 18 10 16 9 12 18 15 24 3 9 17 10 17 6 11 11 21 16 9 11 7 6 5 13 10 15 24 23 10 8 5 10
28 7 6 6 5 2 6 5 6 8 9 13 18 4 6 15 9 7 4 10 9 23 14 9 18 5 9 6 18 7 15 22 7 3 3 7 7 10 9 10 8 10 7 8 8
7 6 6 4 5 4 5 3 4 6 10 10 6 8 10 16 15 12 4 3 13 19 23 7 4 3 10 6 1 15 24 5 2 8 14 5 5 6 5 12 8 8 10 7 6
3 6 5 6 4 5 2 5 6 10 10 5 7 8 5 6 8 8 6 10 16 15 17 14 4 1 3 10 18 6 10 4 6 6 8 2 8 9 13 15 12 12 7 8 10
3 5 4 5 4 1 1 4 6 7 5 3 4 6 4 11 6 9 5 8 11 13 13 9 10 8 8 3 4 15 9 15 9 12 5 4 10 1 5 6 8 10 10 7 8
6 4 5 4 2 3 4 4 5 5 5 4 4 2 4 6 6 10 7 7 3 11 7 10 8 9 3 2 5 5 10 12 5 5 10 7 6 1 5 7 4 8 8 9 10
3 5 5 4 1 0 4 6 4 6 6 4 5 3 4 9 4 11 14 10 10 11 17 14 9 13 12 21 9 7 12 8 14 6 10 7 4 5 7 7 4 6 7 8 10
3 4 3 5 9 5 5 5 9 4 4 0 5 3 4 6 12 6 18 21 15 5 6 10 8 11 3 6 6 4 10 17 13 23 15 17 7 9 7 8 3 3 6 9 10
1 2 3 10 8 7 11 2 6 6 3 8 3 14 10 5 12 20 16 17 11 1 9 4 8 1 10 2 6 5 7 7 16 21 6 6 5 8 3 5 7 9 10 13 14
3 3 3 7 4 7 3 4 5 5 6 6 9 6 14 17 13 22 19 24 17 20 15 8 8 5 7 7 6 3 12 8 5 4 13 13 17 7 5 6 9 10 11 12 12
Wind_Direction
6 359 358 354 351 349 346 341 338 332 329 319 303 291 295 299 296 222 227 232 204 216 159 128 155 197 175 232 212 145 120 233 231 166 242 211 198 169 157 133 170 175 156 183 157
1 360 356 352 347 344 341 337 333 330 323 318 310 294 290 304 272 247 217 210 216 204 162 178 185 162 194 223 224 160 185 228 181 198 215 199 179 179 155 140 164 63 15 136 148
357 353 350 347 344 341 336 331 327 324 320 317 315 301 285 310 291 250 212 216 201 193 191 170 134 154 198 166 218 200 236 201 240 221 239 215 200 182 153 229 197 187 160 158 162
354 351 347 342 339 335 330 326 323 319 315 314 311 302 285 208 244 308 293 216 195 163 153 158 160 172 199 199 193 233 247 231 283 177 191 215 155 205 194 212 190 178 164 162 173
351 348 344 340 336 332 328 324 319 314 309 305 305 290 231 232 237 276 5 126 148 156 176 177 170 167 184 196 188 230 245 242 237 240 223 189 219 215 237 241 178 146 164 174 180
350 347 344 339 334 329 324 319 314 308 306 304 298 274 210 242 218 230 175 156 180 172 175 160 205 200 191 198 178 204 223 245 231 225 234 207 245 157 233 212 148 164 179 183 184
349 346 343 339 336 331 326 318 310 303 297 293 287 250 232 225 188 294 188 188 185 189 185 191 152 167 174 280 215 218 259 273 217 208 218 162 276 224 235 175 177 193 189 190 194
342 341 340 337 333 329 323 316 306 297 289 285 270 221 245 247 242 267 187 213 175 190 222 175 136 166 197 276 329 166 170 231 214 174 220 147 258 235 227 187 197 196 197 196 198
338 337 336 334 329 324 323 314 301 294 288 271 193 199 256 229 201 222 182 183 171 166 169 136 122 180 136 146 354 250 216 219 286 194 148 188 255 246 203 198 216 199 199 201 199
340 338 337 335 330 325 325 315 296 301 236 174 253 195 264 214 208 191 190 171 153 135 152 170 189 178 160 165 216 212 203 208 192 212 182 207 243 247 215 187 218 209 199 197 199
336 334 333 334 331 325 333 328 3 348 360 267 282 271 327 238 308 188 167 167 126 150 188 180 182 209 200 201 212 219 220 212 232 186 152 214 239 235 238 253 251 222 206 207 207
333 331 333 336 329 321 335 325 303 325 292 267 263 262 269 280 296 226 150 165 179 193 136 167 225 209 228 230 227 212 204 228 296 189 170 240 250 241 208 227 220 226 215 217 216
328 327 332 333 324 337 325 292 293 345 274 277 244 246 239 217 246 287 175 182 190 188 190 198 218 195 207 200 220 228 217 219 199 147 208 1 264 241 226 229 234 228 223 217 211
325 324 329 332 318 321 299 266 307 329 284 284 213 245 242 230 256 212 220 178 187 205 192 224 224 190 200 215 193 229 216 233 222 135 240 166 272 240 218 224 229 243 221 222 210
322 323 326 330 301 275 262 320 310 205 305 266 70 33 346 168 335 211 191 210 201 163 156 222 181 209 197 211 195 230 181 202 195 210 19 183 292 275 224 238 225 233 236 231 213
323 323 326 324 294 249 286 295 2 213 251 297 44 354 346 330 335 324 198 203 180 173 213 218 189 187 212 208 200 175 86 61 72 124 241 223 195 196 218 218 239 246 230 224 204
324 323 319 307 265 294 316 347 12 222 314 7 336 333 326 351 334 7 315 200 197 179 207 214 202 199 170 122 130 162 132 230 301 248 235 204 210 248 224 223 233 242 244 219 199
328 324 304 292 274 290 352 4 239 299 339 333 325 313 337 360 0 359 326 242 221 236 199 214 216 192 182 187 168 188 180 161 200 205 215 134 234 248 217 226 237 233 248 222 188
326 310 306 280 301 69 54 31 332 357 312 320 313 342 356 356 342 326 205 288 250 219 207 185 232 211 178 164 159 200 199 209 96 121 93 214 278 294 239 252 231 231 187 206 187
329 320 284 293 2 59 75 207 283 313 321 317 309 325 26 346 346 350 322 344 345 1 335 211 239 226 201 113 55 172 196 160 172 191 239 253 261 236 254 240 221 221 205 184 164
322 326 270 331 64 51 128 244 274 310 332 318 327 314 28 355 323 299 307 342 10 323 339 270 253 321 134 205 189 172 174 163 158 159 211 189 255 213 207 223 215 216 187 171 161
309 321 293 11 24 93 214 207 286 295 325 314 287 338 346 324 276 277 260 214 355 339 315 290 240 210 202 256 300 226 201 189 190 218 245 189 244 248 271 270 252 195 181 154 155
319 285 314 62 340 306 302 271 254 300 298 309 290 106 273 313 319 311 318 339 329 337 310 348 236 221 155 24 353 189 196 205 117 74 196 174 257 174 297 296 237 177 164 147 142
316 317 308 27 268 198 302 280 280 283 274 253 251 280 2 304 268 284 289 304 304 284 296 316 231 206 202 209 144 180 187 186 200 209 212 220 215 263 256 258 235 173 155 143 151
12 278 266 294 322 304 285 267 297 289 269 270 312 259 259 287 303 240 312 308 299 272 331 3 280 190 190 141 125 143 175 194 196 221 213 235 211 253 211 231 248 148 135 143 160
123 334 310 285 291 267 283 239 267 283 225 297 182 304 299 236 272 289 306 298 282 269 353 349 290 193 185 287 107 128 138 156 214 232 219 255 271 239 303 154 173 189 181 187 187
268 222 281 290 283 297 275 265 280 334 286 245 282 296 302 295 294 285 271 272 262 275 296 303 298 340 200 150 99 263 196 165 160 191 211 228 239 257 215 204 201 198 190 199 192